Station Historical Data
Daily Summary for August 8, 2017 Units:  English    Metric   Both
« Previous Day
Next Day »
Daily Weekly Monthly Yearly Custom
  High: Low: Average:
Temperature: 86.2 °F 68.1 °F 75.7 °F
Dew Point: 59.5 °F 52.0 °F 55 °F
Humidity: 63 % 33 % 50 %
Wind Speed: 10.0 mph 0.0 mph 2 mph
Wind Gust: 13.0 mph - -
Wind:- - SSE
Pressure: 29.91 in 29.85 in -
Precipitation: 0.00 in    
Historical Graphs
 
 
Tabular Data for August 8, 2017
Time Temperature Dew Point Pressure Wind Wind Speed Wind Gust Humidity Rainfall Rate (Hourly) solar
00:00 70.9 °F 54.9 °F 29.90 in ESE 1.0 mph 8.0 mph 57 % 0.00 in 0.00 W/m2
00:05 70.9 °F 54.9 °F 29.90 in ESE 4.0 mph 9.0 mph 57 % 0.00 in 0.00 W/m2
00:10 70.8 °F 54.8 °F 29.90 in Calm   5.0 mph 57 % 0.00 in 0.00 W/m2
00:15 70.5 °F 54.5 °F 29.90 in East 2.0 mph 5.0 mph 57 % 0.00 in 0.00 W/m2
00:20 70.4 °F 54.9 °F 29.90 in Calm   4.0 mph 58 % 0.00 in 0.00 W/m2
00:25 70.3 °F 54.8 °F 29.90 in Calm   5.0 mph 58 % 0.00 in 0.00 W/m2
00:30 70.2 °F 54.8 °F 29.90 in Calm   6.0 mph 58 % 0.00 in 0.00 W/m2
00:35 70.0 °F 54.6 °F 29.90 in East 5.0 mph 7.0 mph 58 % 0.00 in 0.00 W/m2
00:40 69.9 °F 54.9 °F 29.90 in Calm   4.0 mph 59 % 0.00 in 0.00 W/m2
00:46 69.7 °F 54.8 °F 29.90 in East 3.0 mph 5.0 mph 59 % 0.00 in 0.00 W/m2
00:51 69.5 °F 54.6 °F 29.90 in Calm   3.0 mph 59 % 0.00 in 0.00 W/m2
00:56 69.4 °F 54.5 °F 29.89 in Calm   4.0 mph 59 % 0.00 in 0.00 W/m2
01:01 69.3 °F 54.4 °F 29.89 in Calm   5.0 mph 59 % 0.00 in 0.00 W/m2
01:06 69.2 °F 54.7 °F 29.90 in East 3.0 mph 3.0 mph 60 % 0.00 in 0.00 W/m2
01:11 69.2 °F 54.7 °F 29.90 in Calm   5.0 mph 60 % 0.00 in 0.00 W/m2
01:16 69.1 °F 54.7 °F 29.90 in East 3.0 mph 4.0 mph 60 % 0.00 in 0.00 W/m2
01:21 69.1 °F 54.7 °F 29.90 in East 4.0 mph 6.0 mph 60 % 0.00 in 0.00 W/m2
01:26 69.1 °F 54.2 °F 29.89 in Calm   4.0 mph 59 % 0.00 in 0.00 W/m2
01:31 69.2 °F 54.3 °F 29.89 in Calm   5.0 mph 59 % 0.00 in 0.00 W/m2
01:36 69.2 °F 54.3 °F 29.89 in East 3.0 mph 6.0 mph 59 % 0.00 in 0.00 W/m2
01:41 69.2 °F 54.3 °F 29.89 in Calm   7.0 mph 59 % 0.00 in 0.00 W/m2
01:46 69.2 °F 54.3 °F 29.89 in Calm   8.0 mph 59 % 0.00 in 0.00 W/m2
01:51 69.2 °F 54.3 °F 29.89 in Calm   8.0 mph 59 % 0.00 in 0.00 W/m2
01:56 69.3 °F 54.4 °F 29.89 in East 4.0 mph 7.0 mph 59 % 0.00 in 0.00 W/m2
02:01 69.3 °F 54.4 °F 29.89 in Calm   8.0 mph 59 % 0.00 in 0.00 W/m2
02:06 69.4 °F 54.0 °F 29.89 in East 1.0 mph 6.0 mph 58 % 0.00 in 0.00 W/m2
02:11 69.5 °F 54.1 °F 29.89 in East 7.0 mph 7.0 mph 58 % 0.00 in 0.00 W/m2
02:16 69.6 °F 54.2 °F 29.88 in East 5.0 mph 9.0 mph 58 % 0.00 in 0.00 W/m2
02:21 69.7 °F 54.3 °F 29.88 in East 4.0 mph 9.0 mph 58 % 0.00 in 0.00 W/m2
02:26 69.7 °F 54.3 °F 29.88 in East 5.0 mph 11.0 mph 58 % 0.00 in 0.00 W/m2
02:31 69.7 °F 53.8 °F 29.88 in East 7.0 mph 11.0 mph 57 % 0.00 in 0.00 W/m2
02:36 69.8 °F 54.4 °F 29.88 in East 5.0 mph 8.0 mph 58 % 0.00 in 0.00 W/m2
02:41 69.8 °F 53.9 °F 29.88 in ESE 9.0 mph 9.0 mph 57 % 0.00 in 0.00 W/m2
02:46 69.8 °F 53.9 °F 29.88 in ESE 6.0 mph 8.0 mph 57 % 0.00 in 0.00 W/m2
02:51 69.8 °F 53.9 °F 29.88 in East 2.0 mph 12.0 mph 57 % 0.00 in 0.00 W/m2
02:56 69.8 °F 53.9 °F 29.88 in East 6.0 mph 12.0 mph 57 % 0.00 in 0.00 W/m2
03:01 69.8 °F 53.9 °F 29.88 in East 6.0 mph 11.0 mph 57 % 0.00 in 0.00 W/m2
03:06 69.8 °F 53.9 °F 29.88 in East 4.0 mph 9.0 mph 57 % 0.00 in 0.00 W/m2
03:11 69.8 °F 53.9 °F 29.88 in Calm   9.0 mph 57 % 0.00 in 0.00 W/m2
03:16 69.8 °F 53.9 °F 29.88 in East 1.0 mph 9.0 mph 57 % 0.00 in 0.00 W/m2
03:21 69.8 °F 53.9 °F 29.88 in Calm   8.0 mph 57 % 0.00 in 0.00 W/m2
03:26 69.8 °F 53.9 °F 29.88 in ESE 7.0 mph 12.0 mph 57 % 0.00 in 0.00 W/m2
03:28 69.8 °F 53.9 °F 29.88 in ESE 9.0 mph 9.0 mph 57 % 0.00 in 0.00 W/m2
03:33 69.8 °F 53.9 °F 29.88 in East 6.0 mph 13.0 mph 57 % 0.00 in 0.00 W/m2
03:38 69.8 °F 53.4 °F 29.88 in ESE 5.0 mph 8.0 mph 56 % 0.00 in 0.00 W/m2
03:43 69.7 °F 53.3 °F 29.88 in East 4.0 mph 11.0 mph 56 % 0.00 in 0.00 W/m2
03:48 69.7 °F 53.3 °F 29.88 in East 5.0 mph 11.0 mph 56 % 0.00 in 0.00 W/m2
03:53 69.7 °F 53.3 °F 29.88 in ESE 6.0 mph 9.0 mph 56 % 0.00 in 0.00 W/m2
03:58 69.7 °F 53.3 °F 29.88 in ESE 6.0 mph 9.0 mph 56 % 0.00 in 0.00 W/m2
04:03 69.6 °F 53.2 °F 29.88 in ESE 6.0 mph 8.0 mph 56 % 0.00 in 0.00 W/m2
04:08 69.6 °F 53.2 °F 29.88 in Calm   7.0 mph 56 % 0.00 in 0.00 W/m2
04:13 69.6 °F 53.2 °F 29.88 in Calm   8.0 mph 56 % 0.00 in 0.00 W/m2
04:18 69.5 °F 53.1 °F 29.88 in ESE 2.0 mph 6.0 mph 56 % 0.00 in 0.00 W/m2
04:24 69.5 °F 53.1 °F 29.88 in ESE 4.0 mph 6.0 mph 56 % 0.00 in 0.00 W/m2
04:29 69.4 °F 53.0 °F 29.88 in Calm   7.0 mph 56 % 0.00 in 0.00 W/m2
04:34 69.4 °F 53.0 °F 29.88 in ESE 2.0 mph 7.0 mph 56 % 0.00 in 0.00 W/m2
04:39 69.4 °F 53.0 °F 29.88 in Calm   6.0 mph 56 % 0.00 in 0.00 W/m2
04:44 69.3 °F 53.0 °F 29.88 in Calm   8.0 mph 56 % 0.00 in 0.00 W/m2
04:49 69.3 °F 53.0 °F 29.88 in ESE 6.0 mph 7.0 mph 56 % 0.00 in 0.00 W/m2
04:54 69.2 °F 52.8 °F 29.88 in ESE 5.0 mph 5.0 mph 56 % 0.00 in 0.00 W/m2
04:59 69.2 °F 52.8 °F 29.88 in Calm   7.0 mph 56 % 0.00 in 0.00 W/m2
05:04 69.1 °F 52.8 °F 29.88 in Calm   7.0 mph 56 % 0.00 in 0.00 W/m2
05:09 69.1 °F 52.8 °F 29.88 in East 4.0 mph 8.0 mph 56 % 0.00 in 0.00 W/m2
05:14 69.0 °F 52.7 °F 29.88 in East 2.0 mph 8.0 mph 56 % 0.00 in 0.00 W/m2
05:19 69.0 °F 52.7 °F 29.88 in Calm   7.0 mph 56 % 0.00 in 0.00 W/m2
05:24 69.0 °F 52.7 °F 29.88 in Calm   8.0 mph 56 % 0.00 in 0.00 W/m2
05:29 68.9 °F 52.6 °F 29.88 in Calm   6.0 mph 56 % 0.00 in 0.00 W/m2
05:34 68.8 °F 52.5 °F 29.88 in Calm   6.0 mph 56 % 0.00 in 0.00 W/m2
05:39 68.8 °F 52.5 °F 29.88 in Calm   7.0 mph 56 % 0.00 in 0.00 W/m2
05:44 68.8 °F 52.5 °F 29.88 in ESE 8.0 mph 8.0 mph 56 % 0.00 in 0.00 W/m2
05:49 68.6 °F 52.3 °F 29.88 in ESE 8.0 mph 8.0 mph 56 % 0.00 in 0.00 W/m2
05:54 68.6 °F 52.3 °F 29.88 in ESE 7.0 mph 8.0 mph 56 % 0.00 in 0.00 W/m2
05:59 68.5 °F 52.2 °F 29.88 in ESE 1.0 mph 8.0 mph 56 % 0.00 in 0.00 W/m2
06:04 68.4 °F 52.1 °F 29.88 in Calm   8.0 mph 56 % 0.00 in 0.00 W/m2
06:09 68.4 °F 52.1 °F 29.88 in ESE 5.0 mph 8.0 mph 56 % 0.00 in 5.00 W/m2
06:14 68.3 °F 52.0 °F 29.88 in Calm   9.0 mph 56 % 0.00 in 7.00 W/m2
06:19 68.3 °F 52.0 °F 29.88 in Calm   11.0 mph 56 % 0.00 in 9.00 W/m2
06:24 68.3 °F 52.0 °F 29.88 in ESE 4.0 mph 9.0 mph 56 % 0.00 in 12.00 W/m2
06:29 68.3 °F 52.0 °F 29.89 in East 2.0 mph 11.0 mph 56 % 0.00 in 16.00 W/m2
06:35 68.2 °F 52.4 °F 29.89 in ESE 6.0 mph 9.0 mph 57 % 0.00 in 19.00 W/m2
06:40 68.2 °F 52.4 °F 29.89 in Calm   8.0 mph 57 % 0.00 in 26.00 W/m2
06:45 68.2 °F 52.4 °F 29.89 in ESE 5.0 mph 9.0 mph 57 % 0.00 in 33.00 W/m2
06:50 68.1 °F 52.3 °F 29.89 in East 6.0 mph 11.0 mph 57 % 0.00 in 44.00 W/m2
06:55 68.1 °F 52.3 °F 29.89 in East 8.0 mph 8.0 mph 57 % 0.00 in 54.00 W/m2
07:00 68.1 °F 52.3 °F 29.89 in East 1.0 mph 9.0 mph 57 % 0.00 in 69.00 W/m2
07:05 68.1 °F 52.8 °F 29.89 in East 2.0 mph 9.0 mph 58 % 0.00 in 79.00 W/m2
07:10 68.1 °F 52.8 °F 29.89 in East 9.0 mph 11.0 mph 58 % 0.00 in 97.00 W/m2
07:15 68.1 °F 53.2 °F 29.89 in East 4.0 mph 8.0 mph 59 % 0.00 in 114.00 W/m2
07:20 68.1 °F 53.2 °F 29.89 in East 7.0 mph 8.0 mph 59 % 0.00 in 128.00 W/m2
07:25 68.1 °F 53.2 °F 29.89 in East 4.0 mph 11.0 mph 59 % 0.00 in 148.00 W/m2
07:30 68.2 °F 53.8 °F 29.89 in East 4.0 mph 9.0 mph 60 % 0.00 in 167.00 W/m2
07:35 68.2 °F 53.8 °F 29.89 in Calm   9.0 mph 60 % 0.00 in 186.00 W/m2
07:40 68.2 °F 53.8 °F 29.89 in East 5.0 mph 9.0 mph 60 % 0.00 in 207.00 W/m2
07:45 68.3 °F 53.9 °F 29.90 in East 4.0 mph 9.0 mph 60 % 0.00 in 227.00 W/m2
07:50 68.4 °F 54.4 °F 29.90 in Calm   11.0 mph 61 % 0.00 in 243.00 W/m2
07:55 68.4 °F 54.4 °F 29.90 in ESE 1.0 mph 9.0 mph 61 % 0.00 in 260.00 W/m2
08:00 68.5 °F 54.5 °F 29.90 in ESE 1.0 mph 8.0 mph 61 % 0.00 in 274.00 W/m2
08:03 68.6 °F 54.6 °F 29.90 in ESE 4.0 mph 8.0 mph 61 % 0.00 in 285.00 W/m2
08:08 68.7 °F 54.7 °F 29.90 in ESE 1.0 mph 9.0 mph 61 % 0.00 in 302.00 W/m2
08:13 68.8 °F 54.8 °F 29.90 in Calm   8.0 mph 61 % 0.00 in 316.00 W/m2
08:18 69.0 °F 55.5 °F 29.90 in Calm   9.0 mph 62 % 0.00 in 330.00 W/m2
08:23 69.1 °F 55.5 °F 29.90 in ESE 2.0 mph 12.0 mph 62 % 0.00 in 345.00 W/m2
08:28 69.3 °F 55.7 °F 29.90 in ESE 2.0 mph 9.0 mph 62 % 0.00 in 360.00 W/m2
08:33 69.5 °F 55.9 °F 29.90 in ESE 5.0 mph 7.0 mph 62 % 0.00 in 376.00 W/m2
08:38 69.7 °F 56.1 °F 29.90 in ESE 4.0 mph 5.0 mph 62 % 0.00 in 394.00 W/m2
08:43 69.9 °F 56.3 °F 29.91 in ESE 2.0 mph 5.0 mph 62 % 0.00 in 408.00 W/m2
08:48 70.1 °F 56.9 °F 29.90 in Calm   4.0 mph 63 % 0.00 in 424.00 W/m2
08:53 70.4 °F 57.2 °F 29.91 in Calm   4.0 mph 63 % 0.00 in 441.00 W/m2
08:58 70.6 °F 57.4 °F 29.90 in Calm   6.0 mph 63 % 0.00 in 452.00 W/m2
09:03 71.0 °F 57.8 °F 29.90 in Calm   4.0 mph 63 % 0.00 in 468.00 W/m2
09:08 71.2 °F 58.0 °F 29.90 in ESE 6.0 mph 6.0 mph 63 % 0.00 in 483.00 W/m2
09:13 71.6 °F 57.9 °F 29.91 in Calm     62 % 0.00 in 499.00 W/m2
09:18 71.9 °F 58.2 °F 29.91 in ESE 4.0 mph 4.0 mph 62 % 0.00 in 515.00 W/m2
09:23 72.1 °F 57.9 °F 29.91 in Calm   4.0 mph 61 % 0.00 in 529.00 W/m2
09:28 72.3 °F 58.1 °F 29.90 in ESE 1.0 mph 5.0 mph 61 % 0.00 in 545.00 W/m2
09:34 72.6 °F 57.5 °F 29.90 in ESE 1.0 mph 2.0 mph 59 % 0.00 in 559.00 W/m2
09:39 72.9 °F 57.3 °F 29.90 in Calm     58 % 0.00 in 575.00 W/m2
09:44 73.1 °F 58.4 °F 29.91 in Calm   1.0 mph 60 % 0.00 in 587.00 W/m2
09:49 73.4 °F 57.7 °F 29.91 in Calm   4.0 mph 58 % 0.00 in 601.00 W/m2
09:54 73.6 °F 58.9 °F 29.91 in Calm   2.0 mph 60 % 0.00 in 613.00 W/m2
09:59 73.9 °F 58.2 °F 29.91 in Calm     58 % 0.00 in 626.00 W/m2
10:04 74.2 °F 58.5 °F 29.91 in Calm     58 % 0.00 in 640.00 W/m2
10:09 74.5 °F 58.3 °F 29.90 in Calm     57 % 0.00 in 654.00 W/m2
10:14 74.7 °F 58.0 °F 29.91 in Calm     56 % 0.00 in 670.00 W/m2
10:15 74.8 °F 57.1 °F 29.91 in Calm   4.0 mph 54 % 0.00 in 671.00 W/m2
10:20 75.2 °F 55.8 °F 29.91 in Calm     51 % 0.00 in 682.00 W/m2
10:25 75.6 °F 57.3 °F 29.90 in Calm   5.0 mph 53 % 0.00 in 694.00 W/m2
10:30 76.0 °F 56.6 °F 29.91 in Calm   2.0 mph 51 % 0.00 in 705.00 W/m2
10:35 76.6 °F 58.7 °F 29.91 in ESE 4.0 mph 5.0 mph 54 % 0.00 in 717.00 W/m2
10:40 77.2 °F 58.2 °F 29.91 in ESE 2.0 mph 4.0 mph 52 % 0.00 in 726.00 W/m2
10:45 77.6 °F 58.1 °F 29.91 in ESE 1.0 mph 6.0 mph 51 % 0.00 in 737.00 W/m2
10:50 78.1 °F 57.4 °F 29.91 in ESE 1.0 mph 4.0 mph 49 % 0.00 in 749.00 W/m2
10:55 78.6 °F 57.9 °F 29.90 in Calm   2.0 mph 49 % 0.00 in 756.00 W/m2
10:56 78.7 °F 58.0 °F 29.90 in ESE 1.0 mph 1.0 mph 49 % 0.00 in 758.00 W/m2
11:01 79.0 °F 58.8 °F 29.90 in SE 5.0 mph 5.0 mph 50 % 0.00 in 770.00 W/m2
11:06 79.3 °F 57.3 °F 29.90 in Calm     47 % 0.00 in 782.00 W/m2
11:11 79.7 °F 58.3 °F 29.90 in Calm     48 % 0.00 in 791.00 W/m2
11:16 80.0 °F 58.0 °F 29.90 in Calm     47 % 0.00 in 800.00 W/m2
11:21 80.4 °F 58.3 °F 29.90 in Calm   2.0 mph 47 % 0.00 in 807.00 W/m2
11:26 80.8 °F 59.3 °F 29.90 in Calm     48 % 0.00 in 814.00 W/m2
11:31 81.1 °F 59.0 °F 29.90 in WSW 1.0 mph 7.0 mph 47 % 0.00 in 824.00 W/m2
11:36 81.4 °F 58.7 °F 29.90 in WSW 4.0 mph 5.0 mph 46 % 0.00 in 830.00 W/m2
11:41 81.7 °F 57.7 °F 29.90 in WSW 4.0 mph 4.0 mph 44 % 0.00 in 835.00 W/m2
11:43 81.9 °F 57.9 °F 29.90 in West 1.0 mph 6.0 mph 44 % 0.00 in 838.00 W/m2
11:48 82.2 °F 57.5 °F 29.90 in Calm     43 % 0.00 in 840.00 W/m2
11:53 82.3 °F 58.2 °F 29.90 in West 3.0 mph 7.0 mph 44 % 0.00 in 842.00 W/m2
11:58 82.4 °F 57.0 °F 29.90 in West 5.0 mph 7.0 mph 42 % 0.00 in 847.00 W/m2
12:03 82.5 °F 57.1 °F 29.90 in Calm   6.0 mph 42 % 0.00 in 851.00 W/m2
12:08 82.7 °F 58.0 °F 29.89 in West 3.0 mph 6.0 mph 43 % 0.00 in 863.00 W/m2
12:13 82.8 °F 57.4 °F 29.89 in Calm   6.0 mph 42 % 0.00 in 867.00 W/m2
12:18 83.0 °F 58.2 °F 29.89 in Calm   1.0 mph 43 % 0.00 in 865.00 W/m2
12:23 83.2 °F 58.4 °F 29.89 in West 4.0 mph 7.0 mph 43 % 0.00 in 870.00 W/m2
12:28 83.4 °F 58.6 °F 29.89 in Calm   9.0 mph 43 % 0.00 in 868.00 W/m2
12:33 83.8 °F 58.9 °F 29.89 in SW 2.0 mph 8.0 mph 43 % 0.00 in 874.00 W/m2
12:38 84.3 °F 58.7 °F 29.89 in SW 3.0 mph 5.0 mph 42 % 0.00 in 875.00 W/m2
12:43 84.5 °F 58.9 °F 29.89 in WSW 1.0 mph 6.0 mph 42 % 0.00 in 881.00 W/m2
12:48 84.9 °F 57.9 °F 29.89 in SSW 1.0 mph 9.0 mph 40 % 0.00 in 879.00 W/m2
12:53 85.5 °F 58.5 °F 29.89 in SW 3.0 mph 7.0 mph 40 % 0.00 in 875.00 W/m2
12:58 85.9 °F 59.5 °F 29.90 in Calm   4.0 mph 41 % 0.00 in 888.00 W/m2
13:03 86.0 °F 58.2 °F 29.89 in SW 6.0 mph 11.0 mph 39 % 0.00 in 893.00 W/m2
13:09 86.2 °F 59.1 °F 29.89 in Calm   12.0 mph 40 % 0.00 in 888.00 W/m2
13:14 85.8 °F 58.0 °F 29.89 in WSW 6.0 mph 9.0 mph 39 % 0.00 in 888.00 W/m2
13:19 85.4 °F 59.0 °F 29.89 in WSW 7.0 mph 9.0 mph 41 % 0.00 in 886.00 W/m2
13:24 85.2 °F 57.5 °F 29.89 in WSW 6.0 mph 9.0 mph 39 % 0.00 in 884.00 W/m2
13:29 84.9 °F 56.5 °F 29.89 in West 5.0 mph 7.0 mph 38 % 0.00 in 889.00 W/m2
13:34 85.0 °F 58.7 °F 29.89 in Calm   9.0 mph 41 % 0.00 in 888.00 W/m2
13:39 85.1 °F 58.1 °F 29.89 in Calm   6.0 mph 40 % 0.00 in 886.00 W/m2
13:44 85.1 °F 58.8 °F 29.89 in Calm   8.0 mph 41 % 0.00 in 881.00 W/m2
13:49 85.0 °F 58.0 °F 29.89 in West 4.0 mph 9.0 mph 40 % 0.00 in 875.00 W/m2
13:54 85.2 °F 58.9 °F 29.89 in Calm   7.0 mph 41 % 0.00 in 874.00 W/m2
13:59 85.3 °F 56.8 °F 29.89 in WSW 10.0 mph 11.0 mph 38 % 0.00 in 863.00 W/m2
14:04 85.1 °F 58.1 °F 29.89 in Calm   6.0 mph 40 % 0.00 in 865.00 W/m2
14:09 85.0 °F 58.0 °F 29.89 in Calm   5.0 mph 40 % 0.00 in 861.00 W/m2
14:14 85.0 °F 57.3 °F 29.89 in Calm   6.0 mph 39 % 0.00 in 851.00 W/m2
14:19 84.7 °F 57.0 °F 29.89 in Calm   6.0 mph 39 % 0.00 in 844.00 W/m2
14:24 84.5 °F 56.1 °F 29.89 in West 6.0 mph 12.0 mph 38 % 0.00 in 838.00 W/m2
14:29 84.6 °F 56.9 °F 29.89 in West 7.0 mph 10.0 mph 39 % 0.00 in 833.00 W/m2
14:34 84.8 °F 56.4 °F 29.88 in Calm   8.0 mph 38 % 0.00 in 821.00 W/m2
14:39 84.7 °F 55.6 °F 29.88 in Calm   9.0 mph 37 % 0.00 in 819.00 W/m2
14:45 84.6 °F 56.9 °F 29.88 in Calm   9.0 mph 39 % 0.00 in 810.00 W/m2
14:50 84.4 °F 55.3 °F 29.88 in West 6.0 mph 9.0 mph 37 % 0.00 in 805.00 W/m2
14:55 84.4 °F 56.8 °F 29.88 in Calm   9.0 mph 39 % 0.00 in 791.00 W/m2
15:00 84.3 °F 56.0 °F 29.88 in WSW 6.0 mph 12.0 mph 38 % 0.00 in 793.00 W/m2
15:05 84.6 °F 55.5 °F 29.88 in West 4.0 mph 10.0 mph 37 % 0.00 in 780.00 W/m2
15:10 84.9 °F 56.5 °F 29.88 in Calm   8.0 mph 38 % 0.00 in 770.00 W/m2
15:15 85.0 °F 57.3 °F 29.88 in SW 4.0 mph 8.0 mph 39 % 0.00 in 761.00 W/m2
15:20 85.2 °F 56.8 °F 29.88 in West 3.0 mph 9.0 mph 38 % 0.00 in 751.00 W/m2
15:25 85.2 °F 56.8 °F 29.88 in West 1.0 mph 8.0 mph 38 % 0.00 in 745.00 W/m2
15:30 85.2 °F 55.3 °F 29.87 in SSW 8.0 mph 10.0 mph 36 % 0.00 in 735.00 W/m2
15:35 85.4 °F 56.2 °F 29.87 in WSW 3.0 mph 10.0 mph 37 % 0.00 in 724.00 W/m2
15:40 85.5 °F 54.0 °F 29.87 in West 3.0 mph 10.0 mph 34 % 0.00 in 707.00 W/m2
15:45 85.4 °F 53.9 °F 29.87 in WSW 3.0 mph 12.0 mph 34 % 0.00 in 698.00 W/m2
15:50 85.2 °F 56.0 °F 29.87 in WSW 4.0 mph 11.0 mph 37 % 0.00 in 689.00 W/m2
15:55 85.0 °F 55.8 °F 29.87 in West 4.0 mph 6.0 mph 37 % 0.00 in 673.00 W/m2
16:00 84.9 °F 55.0 °F 29.87 in Calm   5.0 mph 36 % 0.00 in 664.00 W/m2
16:05 84.9 °F 54.2 °F 29.87 in Calm   8.0 mph 35 % 0.00 in 657.00 W/m2
16:10 85.1 °F 55.2 °F 29.86 in WSW 3.0 mph 8.0 mph 36 % 0.00 in 645.00 W/m2
16:15 85.3 °F 53.8 °F 29.86 in SW 1.0 mph 9.0 mph 34 % 0.00 in 631.00 W/m2
16:20 85.5 °F 54.0 °F 29.86 in Calm   5.0 mph 34 % 0.00 in 617.00 W/m2
16:25 85.4 °F 53.9 °F 29.86 in WSW 9.0 mph 9.0 mph 34 % 0.00 in 605.00 W/m2
16:30 85.3 °F 53.8 °F 29.86 in West 2.0 mph 9.0 mph 34 % 0.00 in 598.00 W/m2
16:35 85.0 °F 52.7 °F 29.86 in Calm   8.0 mph 33 % 0.00 in 578.00 W/m2
16:40 84.9 °F 53.4 °F 29.86 in WSW 8.0 mph 9.0 mph 34 % 0.00 in 566.00 W/m2
16:45 84.8 °F 54.1 °F 29.86 in Calm   10.0 mph 35 % 0.00 in 552.00 W/m2
16:50 84.7 °F 53.3 °F 29.86 in Calm   9.0 mph 34 % 0.00 in 533.00 W/m2
16:55 84.6 °F 53.2 °F 29.85 in SSW 8.0 mph 9.0 mph 34 % 0.00 in 519.00 W/m2
17:00 84.6 °F 54.0 °F 29.85 in Calm   7.0 mph 35 % 0.00 in 503.00 W/m2
17:05 84.6 °F 52.4 °F 29.85 in WSW 4.0 mph 8.0 mph 33 % 0.00 in 483.00 W/m2
17:10 84.7 °F 53.3 °F 29.85 in Calm   7.0 mph 34 % 0.00 in 476.00 W/m2
17:15 84.7 °F 54.8 °F 29.85 in WSW 4.0 mph 7.0 mph 36 % 0.00 in 462.00 W/m2
17:20 84.7 °F 52.4 °F 29.85 in SW 3.0 mph 10.0 mph 33 % 0.00 in 445.00 W/m2
17:25 84.7 °F 53.3 °F 29.85 in SW 5.0 mph 8.0 mph 34 % 0.00 in 427.00 W/m2
17:30 84.6 °F 52.4 °F 29.86 in Calm   4.0 mph 33 % 0.00 in 411.00 W/m2
17:35 84.6 °F 54.0 °F 29.86 in Calm   5.0 mph 35 % 0.00 in 397.00 W/m2
17:40 84.6 °F 54.7 °F 29.85 in Calm   7.0 mph 36 % 0.00 in 380.00 W/m2
17:45 84.5 °F 54.6 °F 29.86 in Calm   6.0 mph 36 % 0.00 in 369.00 W/m2
17:51 84.3 °F 55.2 °F 29.85 in Calm   7.0 mph 37 % 0.00 in 355.00 W/m2
17:52 84.3 °F 55.2 °F 29.85 in WSW 1.0 mph 2.0 mph 37 % 0.00 in 345.00 W/m2
17:57 84.1 °F 53.5 °F 29.85 in Calm   3.0 mph 35 % 0.00 in 332.00 W/m2
18:02 84.0 °F 53.4 °F 29.85 in Calm   6.0 mph 35 % 0.00 in 313.00 W/m2
18:07 83.9 °F 53.3 °F 29.85 in Calm   3.0 mph 35 % 0.00 in 297.00 W/m2
18:12 83.8 °F 54.8 °F 29.85 in Calm     37 % 0.00 in 285.00 W/m2
18:17 83.6 °F 53.8 °F 29.85 in Calm     36 % 0.00 in 272.00 W/m2
18:22 83.4 °F 55.2 °F 29.85 in WSW 4.0 mph 5.0 mph 38 % 0.00 in 257.00 W/m2
18:27 83.2 °F 54.2 °F 29.85 in Calm     37 % 0.00 in 237.00 W/m2
18:32 83.1 °F 54.9 °F 29.85 in Calm     38 % 0.00 in 221.00 W/m2
18:37 82.9 °F 55.4 °F 29.85 in Calm     39 % 0.00 in 206.00 W/m2
18:38 82.9 °F 55.4 °F 29.85 in Calm   1.0 mph 39 % 0.00 in 204.00 W/m2
18:43 82.6 °F 55.9 °F 29.85 in Calm     40 % 0.00 in 192.00 W/m2
18:48 82.3 °F 55.6 °F 29.85 in Calm     40 % 0.00 in 174.00 W/m2
18:53 82.0 °F 56.0 °F 29.85 in WSW 4.0 mph 4.0 mph 41 % 0.00 in 156.00 W/m2
18:58 81.8 °F 55.8 °F 29.85 in Calm   1.0 mph 41 % 0.00 in 137.00 W/m2
19:03 81.5 °F 56.2 °F 29.85 in Calm   4.0 mph 42 % 0.00 in 118.00 W/m2
19:08 81.1 °F 55.9 °F 29.85 in WSW 1.0 mph 1.0 mph 42 % 0.00 in 98.00 W/m2
19:13 80.8 °F 55.6 °F 29.86 in Calm     42 % 0.00 in 83.00 W/m2
19:18 80.5 °F 56.0 °F 29.86 in Calm     43 % 0.00 in 69.00 W/m2
19:23 80.2 °F 56.3 °F 29.86 in Calm   1.0 mph 44 % 0.00 in 54.00 W/m2
19:28 79.8 °F 56.0 °F 29.86 in Calm   1.0 mph 44 % 0.00 in 42.00 W/m2
19:33 79.5 °F 56.3 °F 29.86 in Calm     45 % 0.00 in 32.00 W/m2
19:38 79.1 °F 56.0 °F 29.86 in Calm   1.0 mph 45 % 0.00 in 25.00 W/m2
19:43 78.8 °F 56.3 °F 29.86 in Calm     46 % 0.00 in 18.00 W/m2
19:48 78.6 °F 56.1 °F 29.86 in Calm   3.0 mph 46 % 0.00 in 14.00 W/m2
19:53 78.3 °F 56.4 °F 29.86 in Calm   1.0 mph 47 % 0.00 in 11.00 W/m2
19:58 78.0 °F 56.2 °F 29.86 in Calm     47 % 0.00 in 9.00 W/m2
20:03 77.6 °F 55.8 °F 29.86 in Calm   1.0 mph 47 % 0.00 in 7.00 W/m2
20:08 77.1 °F 55.9 °F 29.86 in Calm     48 % 0.00 in 5.00 W/m2
20:15 76.4 °F 55.3 °F 29.86 in Calm   1.0 mph 48 % 0.00 in 0.00 W/m2
20:20 76.0 °F 55.5 °F 29.86 in Calm   1.0 mph 49 % 0.00 in 0.00 W/m2
20:24 75.7 °F 55.2 °F 29.86 in Calm   1.0 mph 49 % 0.00 in 0.00 W/m2
20:25 75.6 °F 55.1 °F 29.86 in Calm   1.0 mph 49 % 0.00 in 0.00 W/m2
20:29 75.4 °F 54.9 °F 29.86 in WSW 1.0 mph 1.0 mph 49 % 0.00 in 0.00 W/m2
20:34 75.2 °F 54.8 °F 29.86 in Calm     49 % 0.00 in 0.00 W/m2
20:39 75.0 °F 54.0 °F 29.86 in Calm     48 % 0.00 in 0.00 W/m2
20:44 74.8 °F 54.4 °F 29.86 in Calm   1.0 mph 49 % 0.00 in 0.00 W/m2
20:49 74.6 °F 54.2 °F 29.86 in Calm   1.0 mph 49 % 0.00 in 0.00 W/m2
20:54 74.4 °F 54.0 °F 29.87 in Calm     49 % 0.00 in 0.00 W/m2
20:59 74.1 °F 53.7 °F 29.87 in Calm     49 % 0.00 in 0.00 W/m2
21:04 73.9 °F 53.6 °F 29.87 in Calm     49 % 0.00 in 0.00 W/m2
21:09 73.7 °F 53.4 °F 29.87 in Calm     49 % 0.00 in 0.00 W/m2
21:14 73.6 °F 52.7 °F 29.87 in Calm     48 % 0.00 in 0.00 W/m2
21:20 73.4 °F 53.1 °F 29.87 in Calm     49 % 0.00 in 0.00 W/m2
21:25 73.2 °F 52.9 °F 29.88 in Calm     49 % 0.00 in 0.00 W/m2
21:30 73.0 °F 52.7 °F 29.88 in Calm   1.0 mph 49 % 0.00 in 0.00 W/m2
21:35 72.9 °F 52.6 °F 29.88 in Calm     49 % 0.00 in 0.00 W/m2
21:40 72.8 °F 53.1 °F 29.88 in Calm   1.0 mph 50 % 0.00 in 0.00 W/m2
21:45 72.7 °F 53.0 °F 29.88 in Calm   1.0 mph 50 % 0.00 in 0.00 W/m2
21:50 72.5 °F 52.8 °F 29.88 in Calm     50 % 0.00 in 0.00 W/m2
21:55 72.4 °F 52.7 °F 29.88 in Calm     50 % 0.00 in 0.00 W/m2
22:00 72.4 °F 52.7 °F 29.88 in WSW 2.0 mph 3.0 mph 50 % 0.00 in 0.00 W/m2
22:05 72.4 °F 53.3 °F 29.88 in Calm   3.0 mph 51 % 0.00 in 0.00 W/m2
22:10 72.3 °F 53.7 °F 29.88 in Calm   4.0 mph 52 % 0.00 in 0.00 W/m2
22:15 72.2 °F 53.6 °F 29.88 in Calm     52 % 0.00 in 0.00 W/m2
22:20 72.1 °F 53.5 °F 29.88 in Calm   1.0 mph 52 % 0.00 in 0.00 W/m2
22:25 72.0 °F 53.4 °F 29.88 in Calm   2.0 mph 52 % 0.00 in 0.00 W/m2
22:30 71.9 °F 53.3 °F 29.88 in Calm   1.0 mph 52 % 0.00 in 0.00 W/m2
22:35 71.9 °F 53.3 °F 29.88 in Calm   3.0 mph 52 % 0.00 in 0.00 W/m2
22:40 71.7 °F 53.2 °F 29.88 in SW 2.0 mph 4.0 mph 52 % 0.00 in 0.00 W/m2
22:45 71.7 °F 53.2 °F 29.88 in SSW 2.0 mph 5.0 mph 52 % 0.00 in 0.00 W/m2
22:50 71.6 °F 53.1 °F 29.88 in Calm   7.0 mph 52 % 0.00 in 0.00 W/m2
22:55 71.5 °F 53.0 °F 29.88 in ESE 2.0 mph 8.0 mph 52 % 0.00 in 0.00 W/m2
23:00 71.4 °F 52.9 °F 29.88 in Calm   8.0 mph 52 % 0.00 in 0.00 W/m2
23:05 71.4 °F 52.9 °F 29.88 in ESE 4.0 mph 7.0 mph 52 % 0.00 in 0.00 W/m2
23:10 71.3 °F 52.8 °F 29.88 in ESE 5.0 mph 8.0 mph 52 % 0.00 in 0.00 W/m2
23:15 71.3 °F 52.8 °F 29.88 in ESE 1.0 mph 8.0 mph 52 % 0.00 in 0.00 W/m2
23:20 71.3 °F 52.8 °F 29.88 in ESE 2.0 mph 11.0 mph 52 % 0.00 in 0.00 W/m2
23:25 71.3 °F 52.8 °F 29.88 in ESE 8.0 mph 11.0 mph 52 % 0.00 in 0.00 W/m2
23:30 71.3 °F 52.8 °F 29.88 in ESE 5.0 mph 9.0 mph 52 % 0.00 in 0.00 W/m2
23:35 71.2 °F 52.7 °F 29.88 in ESE 5.0 mph 9.0 mph 52 % 0.00 in 0.00 W/m2
23:40 71.2 °F 52.7 °F 29.88 in ESE 5.0 mph 9.0 mph 52 % 0.00 in 0.00 W/m2
23:45 71.2 °F 52.7 °F 29.88 in East 5.0 mph 9.0 mph 52 % 0.00 in 0.00 W/m2
23:51 71.2 °F 52.7 °F 29.88 in ESE 2.0 mph 8.0 mph 52 % 0.00 in 0.00 W/m2
23:56 71.2 °F 52.7 °F 29.88 in ESE 4.0 mph 11.0 mph 52 % 0.00 in 0.00 W/m2
Juneau County Weather
Compliments of Weather Underground - 4.5 mb
 WU-history PHP script courtesy of   Juneau County Weather.
powered by Cumulus v1.9.3 (1059)
Ambient Weather VWS v14.00
Top Contact Website Map Copyright © 2007 - 2018 Foresthillweather.com Never base important decisions on this or any weather information obtained from the Internet